When you browse on this site, cookies collect data to enhance your experience and personalize the content and advertising you see.
Visit our Privacy Policy to learn more. By continuing to use the site, you agree to this use of cookies and data.
  • En España
  • Lista de países
  • Para 7 días
  • Temperatura del agua
  • El tiempo en el mapa
  • Informadores
  • user-avatar
    Iniciar sesión

    Tiempo cada hora Grinevo

    Hoy, 15 Diciembre, Domingo

    Tiempo Temperatura Precipitaciones Viento Presión Humedad
    00:00 -4°C° 0 mm 5 mps 735 mmHg 89%
    01:00 -2°C° 0 mm 5 mps 735 mmHg 90%
    02:00 -2°C° 0 mm 5 mps 734 mmHg 87%
    03:00 -2°C° 0.2 mm 5 mps 734 mmHg 89%
    04:00 -2°C° 0.2 mm 5 mps 733 mmHg 90%
    05:00 -2°C° 0.2 mm 5 mps 733 mmHg 92%
    06:00 -1°C° 0.1 mm 5 mps 732 mmHg 93%
    07:00 -1°C° 0.1 mm 5 mps 732 mmHg 93%
    08:00 -1°C° 0 mm 5 mps 732 mmHg 92%
    09:00 -1°C° 0.5 mm 5 mps 732 mmHg 93%
    10:00 0°C° 0.5 mm 5 mps 731 mmHg 95%
    11:00 0°C° 0.5 mm 5 mps 731 mmHg 96%
    12:00 0°C° 0.7 mm 5 mps 731 mmHg 97%
    13:00 0°C° 0.7 mm 4 mps 731 mmHg 97%
    14:00 0°C° 0.7 mm 4 mps 732 mmHg 97%
    15:00 0°C° 0.1 mm 4 mps 732 mmHg 96%
    16:00 -1°C° 0.1 mm 5 mps 732 mmHg 94%
    17:00 -1°C° 0.1 mm 5 mps 733 mmHg 93%
    18:00 -1°C° 0 mm 5 mps 733 mmHg 92%
    19:00 -1°C° 0 mm 5 mps 734 mmHg 91%
    20:00 -1°C° 0 mm 4 mps 734 mmHg 90%
    21:00 -2°C° 0 mm 4 mps 734 mmHg 91%
    22:00 -2°C° 0 mm 4 mps 735 mmHg 92%
    23:00 -2°C° 0 mm 4 mps 735 mmHg 93%

    Mañana, 16 Diciembre, Lunes

    Tiempo Temperatura Precipitaciones Viento Presión Humedad
    00:00 -2°C° 0 mm 4 mps 735 mmHg 93%
    01:00 -2°C° 0 mm 4 mps 736 mmHg 93%
    02:00 -2°C° 0 mm 4 mps 736 mmHg 94%
    03:00 -2°C° 0 mm 4 mps 735 mmHg 94%
    04:00 -1°C° 0 mm 5 mps 735 mmHg 95%
    05:00 -1°C° 0 mm 5 mps 735 mmHg 95%
    06:00 -1°C° 0 mm 5 mps 735 mmHg 94%
    07:00 0°C° 0 mm 5 mps 735 mmHg 94%
    08:00 0°C° 0 mm 5 mps 735 mmHg 93%
    09:00 0°C° 0 mm 5 mps 735 mmHg 91%
    10:00 -1°C° 0 mm 6 mps 736 mmHg 89%
    11:00 +1°C° 0 mm 6 mps 736 mmHg 87%
    12:00 +1°C° 0 mm 6 mps 736 mmHg 85%
    13:00 +1°C° 0 mm 6 mps 736 mmHg 83%
    14:00 +1°C° 0 mm 6 mps 736 mmHg 81%
    15:00 +1°C° 0 mm 6 mps 737 mmHg 80%
    16:00 +1°C° 0 mm 6 mps 738 mmHg 80%
    17:00 -1°C° 0 mm 6 mps 738 mmHg 79%
    18:00 -1°C° 0 mm 6 mps 739 mmHg 80%
    19:00 0°C° 0 mm 5 mps 739 mmHg 82%
    20:00 -1°C° 0 mm 5 mps 739 mmHg 84%
    21:00 -1°C° 0 mm 5 mps 740 mmHg 86%
    22:00 -1°C° 0 mm 5 mps 740 mmHg 89%
    23:00 -2°C° 0 mm 4 mps 740 mmHg 92%

    Pasado mañana, 17 Diciembre, Martes

    Tiempo Temperatura Precipitaciones Viento Presión Humedad
    00:00 -2°C° 0 mm 4 mps 741 mmHg 92%
    01:00 -1°C° 0 mm 3 mps 741 mmHg 93%
    02:00 -1°C° 0 mm 3 mps 741 mmHg 94%
    03:00 -1°C° 0 mm 3 mps 741 mmHg 94%
    04:00 -2°C° 0 mm 2 mps 741 mmHg 94%
    05:00 -2°C° 0 mm 2 mps 741 mmHg 94%
    06:00 -1°C° 0 mm 3 mps 741 mmHg 94%
    07:00 -1°C° 0 mm 3 mps 741 mmHg 93%
    08:00 -1°C° 0 mm 3 mps 741 mmHg 93%
    09:00 -1°C° 0 mm 4 mps 740 mmHg 91%
    10:00 -1°C° 0 mm 4 mps 740 mmHg 90%
    11:00 0°C° 0 mm 4 mps 740 mmHg 89%
    12:00 0°C° 0.2 mm 5 mps 740 mmHg 90%
    13:00 +1°C° 0.2 mm 5 mps 739 mmHg 91%
    14:00 +1°C° 0.2 mm 5 mps 739 mmHg 92%
    15:00 +1°C° 0 mm 5 mps 739 mmHg 93%
    16:00 +1°C° 0 mm 5 mps 738 mmHg 93%
    17:00 +1°C° 0 mm 5 mps 738 mmHg 94%
    18:00 +1°C° 0 mm 4 mps 738 mmHg 94%
    19:00 0°C° 0 mm 4 mps 738 mmHg 95%
    20:00 +1°C° 0 mm 3 mps 739 mmHg 95%
    21:00 +1°C° 0 mm 3 mps 739 mmHg 96%
    22:00 +1°C° 0 mm 3 mps 739 mmHg 96%
    23:00 +2°C° 0 mm 2 mps 739 mmHg 96%

    18 Diciembre, Miércoles

    Tiempo Temperatura Precipitaciones Viento Presión Humedad
    00:00 +2°C° 0 mm 2 mps 739 mmHg 97%
    01:00 +2°C° 0 mm 2 mps 739 mmHg 97%
    02:00 +2°C° 0 mm 2 mps 739 mmHg 97%
    03:00 +3°C° 0 mm 1 mps 739 mmHg 97%
    04:00 +3°C° 0 mm 1 mps 739 mmHg 97%
    05:00 +3°C° 0 mm 1 mps 740 mmHg 96%
    06:00 +3°C° 0 mm 1 mps 740 mmHg 96%
    07:00 +3°C° 0 mm 1 mps 740 mmHg 96%
    08:00 +2°C° 0 mm 0 mps 740 mmHg 96%
    09:00 +3°C° 0 mm 1 mps 740 mmHg 96%
    10:00 +3°C° 0 mm 1 mps 740 mmHg 96%
    11:00 +3°C° 0 mm 2 mps 741 mmHg 95%
    12:00 +3°C° 0 mm 2 mps 740 mmHg 95%
    13:00 +3°C° 0 mm 2 mps 740 mmHg 95%
    14:00 +2°C° 0 mm 3 mps 740 mmHg 95%
    15:00 +2°C° 0 mm 3 mps 740 mmHg 95%
    16:00 +2°C° 0 mm 2 mps 740 mmHg 96%
    17:00 +2°C° 0 mm 2 mps 740 mmHg 96%
    18:00 +1°C° 0 mm 2 mps 740 mmHg 96%
    19:00 +1°C° 0 mm 2 mps 740 mmHg 97%
    20:00 +1°C° 0 mm 2 mps 740 mmHg 97%
    21:00 +1°C° 0 mm 2 mps 740 mmHg 97%
    22:00 +1°C° 0 mm 2 mps 740 mmHg 96%
    23:00 0°C° 0 mm 3 mps 740 mmHg 96%

    19 Diciembre, Jueves

    Tiempo Temperatura Precipitaciones Viento Presión Humedad
    00:00 0°C° 0 mm 3 mps 739 mmHg 96%
    01:00 0°C° 0 mm 3 mps 739 mmHg 96%
    02:00 -1°C° 0 mm 3 mps 739 mmHg 96%
    03:00 0°C° 0 mm 3 mps 738 mmHg 96%
    04:00 -1°C° 0 mm 4 mps 738 mmHg 97%
    05:00 -1°C° 0 mm 4 mps 737 mmHg 97%
    06:00 0°C° 0 mm 4 mps 737 mmHg 97%
    07:00 0°C° 0 mm 4 mps 737 mmHg 97%
    08:00 +1°C° 0 mm 4 mps 737 mmHg 97%
    09:00 +1°C° 0 mm 4 mps 737 mmHg 96%
    10:00 +1°C° 0 mm 4 mps 737 mmHg 95%
    11:00 +1°C° 0 mm 4 mps 737 mmHg 95%
    12:00 +1°C° 0 mm 4 mps 737 mmHg 94%
    13:00 +1°C° 0 mm 4 mps 736 mmHg 94%
    14:00 +3°C° 0 mm 4 mps 736 mmHg 93%
    15:00 +1°C° 0 mm 4 mps 736 mmHg 93%
    16:00 +1°C° 0 mm 4 mps 736 mmHg 94%
    17:00 +1°C° 0 mm 4 mps 737 mmHg 94%
    18:00 +1°C° 0 mm 4 mps 737 mmHg 93%
    19:00 0°C° 0 mm 4 mps 737 mmHg 92%
    20:00 0°C° 0 mm 4 mps 737 mmHg 90%
    21:00 0°C° 0 mm 4 mps 737 mmHg 90%
    22:00 -1°C° 0 mm 4 mps 737 mmHg 89%
    23:00 -1°C° 0 mm 4 mps 737 mmHg 89%

    20 Diciembre, Viernes

    Tiempo Temperatura Precipitaciones Viento Presión Humedad
    00:00 -1°C° 0 mm 4 mps 737 mmHg 86%
    01:00 -1°C° 0 mm 4 mps 738 mmHg 83%
    02:00 -1°C° 0 mm 4 mps 738 mmHg 80%
    03:00 -1°C° 0 mm 3 mps 738 mmHg 83%
    04:00 -1°C° 0 mm 3 mps 738 mmHg 86%
    05:00 -2°C° 0 mm 2 mps 738 mmHg 88%
    06:00 -2°C° 0 mm 2 mps 738 mmHg 90%
    07:00 -3°C° 0 mm 2 mps 739 mmHg 91%
    08:00 -3°C° 0 mm 2 mps 739 mmHg 93%
    09:00 -3°C° 0 mm 2 mps 739 mmHg 90%
    10:00 -2°C° 0 mm 2 mps 739 mmHg 88%
    11:00 -2°C° 0 mm 2 mps 740 mmHg 85%
    12:00 +1°C° 0 mm 1 mps 739 mmHg 85%
    13:00 +1°C° 0 mm 1 mps 739 mmHg 84%
    14:00 +1°C° 0 mm 1 mps 739 mmHg 83%
    15:00 0°C° 0 mm 1 mps 739 mmHg 85%
    16:00 0°C° 0 mm 1 mps 739 mmHg 87%
    17:00 -3°C° 0 mm 2 mps 739 mmHg 89%
    18:00 -3°C° 0 mm 2 mps 739 mmHg 89%
    19:00 -3°C° 0 mm 2 mps 739 mmHg 88%
    20:00 -3°C° 0 mm 2 mps 739 mmHg 88%
    21:00 -4°C° 0 mm 3 mps 739 mmHg 86%
    22:00 -4°C° 0 mm 3 mps 739 mmHg 85%
    23:00 -4°C° 0 mm 3 mps 739 mmHg 84%
    Mostrar más